Location: Dattensoll
(49.9928°N, 9.8954°E)
Time: 23:57:53
(UTC+00:00)

USA 229 - Pass Details

Date: 19 May 2025
Orbit: 872 x 1339 km, 63.4° (Epoch: 20 June)

Event Time Altitude Azimuth Distance (km) Brightness Sun altitude
Exits shadow 23:20:50 31° 212° (SSW) 1,618 4.2 -20.0°
Maximum altitude 23:24:04 80° 129° (SE) 1,007 3.4 -20.0°
Drops below altitude 10° 23:30:54 10° 44° (NE) 2,921 6.7 -20.0°
Sets 23:33:43 0° 44° (NE) 3,953 7.5 -19.9°
